Ottumwa, IA

9:47 AM CDT on October 21, 2017 (GMT -0500)
Ottumwa Industrial

Weather History for KOTM - October, 2011

Change the Weather History Date:

Saturday, October 15, 2011

  Actual Average Record
Temperature  
Mean Temperature 54 °F 53 °F  
Max Temperature 68 °F 64 °F 90 °F (1938)
Min Temperature 40 °F 42 °F 21 °F (1937)
Degree Days  
Heating Degree Days 11 13  
Month to date heating degree days 67 155  
Since 1 July heating degree days 235 276  
Cooling Degree Days 0 0  
Month to date cooling degree days 23 9  
Year to date cooling degree days 1111 936  
Growing Degree Days 4 (Base 50)    
Moisture  
Dew Point 36 °F    
Average Humidity 53    
Maximum Humidity 82    
Minimum Humidity 24    
Precipitation  
Precipitation 0.00 in 0.09 in 1.02 in (1919)
Month to date precipitation 1.04 1.39  
Year to date precipitation 27.61 31.88  
Sea Level Pressure  
Sea Level Pressure 29.95 in    
Wind  
Wind Speed 10 mph (WSW)    
Max Wind Speed 22 mph    
Max Gust Speed 29 mph    
Visibility 10 miles    
Events      
T = Trace of Precipitation, MM = Missing Value Source: NWS Daily Summary

Daily Weather History Graph

Daily Weather History Graph

Search for Another Location

Airport or City:

Trip Planner

Search our weather history database for the weather conditions in past years. The results will help you decide how hot, cold, wet, or windy it might be!

Date:

Astronomy

Oct. 15, 2011 Rise Set
Actual Time 7:21 AM CDT 6:29 PM CDT
Civil Twilight 6:53 AM CDT 6:57 PM CDT
Nautical Twilight 6:21 AM CDT 7:29 PM CDT
Astronomical Twilight 5:49 AM CDT 8:00 PM CDT
Moon 8:24 PM CDT (10/15) 10:47 AM CDT (10/15)
Length of Visible Light 12h 03m
Length of Day
11h 08m
Waning Gibbous, 89% of the Moon is Illuminated
Oct 15
Waning Gibbous
Oct 19
Last Quarter
Oct 26
New
Nov 2
First Quarter
Nov 10
Full

Hourly Weather History & Observations

Time (CDT) Temp. Windchill Dew Point Humidity Pressure Visibility Wind Dir Wind Speed Gust Speed Precip Events Conditions
12:53 AM 44.1 °F 39.5 °F 36.0 °F 73% 29.94 in 10.0 mi West 8.1 mph - N/A   Clear
1:53 AM 45.0 °F 40.1 °F 36.0 °F 71% 29.96 in 10.0 mi West 9.2 mph - N/A   Clear
2:53 AM 43.0 °F 38.8 °F 36.0 °F 76% 29.96 in 10.0 mi West 6.9 mph - N/A   Clear
3:53 AM 44.1 °F 39.5 °F 36.0 °F 73% 29.97 in 10.0 mi WNW 8.1 mph - N/A   Clear
4:53 AM 42.1 °F 37.1 °F 36.0 °F 79% 29.98 in 10.0 mi West 8.1 mph - N/A   Clear
5:53 AM 42.1 °F 36.6 °F 37.0 °F 82% 30.00 in 10.0 mi West 9.2 mph - N/A   Clear
6:53 AM 41.0 °F 36.4 °F 36.0 °F 82% 30.00 in 10.0 mi West 6.9 mph - N/A   Clear
7:53 AM 42.8 °F 38.0 °F 37.4 °F 81% 30.00 in 10.0 mi West 8.1 mph - N/A   Clear
8:53 AM 46.0 °F 41.4 °F 39.0 °F 76% 30.03 in 10.0 mi WSW 9.2 mph - N/A   Clear
9:53 AM 52.0 °F - 39.0 °F 61% 30.04 in 10.0 mi West 11.5 mph - N/A   Partly Cloudy
10:53 AM 57.2 °F - 39.2 °F 51% 30.03 in 10.0 mi West 15.0 mph 20.7 mph N/A   Mostly Cloudy
11:53 AM 62.6 °F - 37.4 °F 39% 30.01 in 10.0 mi West 18.4 mph 25.3 mph N/A   Partly Cloudy
12:53 PM 64.0 °F - 35.1 °F 34% 30.00 in 10.0 mi West 17.3 mph 21.9 mph N/A   Clear
1:53 PM 66.0 °F - 34.0 °F 30% 29.98 in 10.0 mi West 13.8 mph 24.2 mph N/A   Clear
2:53 PM 66.9 °F - 32.0 °F 27% 29.94 in 10.0 mi WNW 12.7 mph - N/A   Clear
3:53 PM 68.0 °F - 30.9 °F 25% 29.92 in 10.0 mi SW 12.7 mph - N/A   Clear
4:53 PM 66.9 °F - 32.0 °F 27% 29.89 in 10.0 mi WSW 10.4 mph - N/A   Clear
5:53 PM 64.9 °F - 33.1 °F 31% 29.89 in 10.0 mi SW 6.9 mph - N/A   Clear
6:53 PM 57.9 °F - 34.0 °F 41% 29.89 in 10.0 mi SSW 4.6 mph - N/A   Clear
7:53 PM 55.0 °F - 35.1 °F 47% 29.89 in 10.0 mi South 4.6 mph - N/A   Clear
8:53 PM 52.0 °F - 36.0 °F 54% 29.87 in 10.0 mi South 8.1 mph - N/A   Clear
9:53 PM 51.1 °F - 36.0 °F 56% 29.86 in 10.0 mi South 6.9 mph - N/A   Clear
10:53 PM 51.1 °F - 35.1 °F 54% 29.85 in 10.0 mi South 8.1 mph - N/A   Clear
11:53 PM 53.1 °F - 37.0 °F 55% 29.81 in 10.0 mi South 9.2 mph - N/A   Clear